Location: Newark
(25.0000°N, 73.5000°E)
Time: 22:39:50
(UTC+00:00)

Explorer 11/Cluster Stage 4 - Visible Passes

Search period start: 30 July 2021 00:00
Search period end: 09 August 2021 00:00
Orbit: 467 x 1257 km, 28.8° (Epoch: 30 July)

Date Brightness Start Highest point End Pass type
(mag) Time Alt. Az. Time Alt. Az. Time Alt. Az.
06 Aug 7.8 00:10:00 10° SW 00:15:32 42° SSE 00:22:19 10° E visible
06 Aug 8.9 22:16:31 11° SE 22:16:31 11° SE 22:18:18 10° ESE visible
06 Aug 7.6 23:58:52 10° SW 00:04:18 47° SSE 00:11:01 10° E visible
07 Aug 8.8 22:06:14 13° SE 22:06:14 13° SE 22:07:51 10° ESE visible
07 Aug 7.3 23:48:22 13° SW 23:53:05 53° SSE 23:59:43 10° E visible
08 Aug 8.9 21:55:56 13° ESE 21:55:56 13° ESE 21:57:08 10° ESE visible
08 Aug 7.0 23:38:03 18° SW 23:41:54 60° SSE 23:48:24 10° ENE visible
